Alagna, Italy 16 day weather forecast

Slopes altitude range -1 m - -1m

Number of lifts: -1 Pistes: -1km

In some cases the lift and piste totals shown are for the ski domain (e.g. Three Valleys) rather than individual resort (e.g. Courchevel)

Overview

The 16 day weather forecast is fully updated 4 times every day.

    • Mon 22 APR 2019
    • Mon 22
    • 12C 18C
    • Tue 23 APR 2019
    • Tue 23
    • 11C 13C
    • Wed 24 APR 2019
    • Wed 24
    • 13C 19C
    • Thu 25 APR 2019
    • Thu 25
    • 12C 18C
    • Fri 26 APR 2019
    • Fri 26
    • 13C 19C
    • Sat 27 APR 2019
    • Sat 27
    • 10C 19C
    • Sun 28 APR 2019
    • Sun 28
    • 13C 23C
    • Mon 29 APR 2019
    • Mon 29
    • 14C 22C
    • Tue 30 APR 2019
    • Tue 30
    • 14C 22C
    • Wed 01 MAY 2019
    • Wed 01
    • 10C 17C
    • Thu 02 MAY 2019
    • Thu 02
    • 8C 17C
    • Fri 03 MAY 2019
    • Fri 03
    • 8C 17C
    • Sat 04 MAY 2019
    • Sat 04
    • 10C 15C
    • Sun 05 MAY 2019
    • Sun 05
    • 12C 15C
    • Mon 06 MAY 2019
    • Mon 06
    • 10C 19C
    • Tue 07 MAY 2019
    • Tue 07
    • 10C 15C

Date:

Time Type 0°C level Temp Chill Snow Cloud Speed Gust Dir Press
3:00 2657m 11°C 11_9 0cm 80% 9mph 19mph 1016mB
6:00 2653m 11°C 11_11 0cm 80% 11mph 24mph 1015mB
9:00 2800m 12°C 12_17 0cm 89% 17mph 26mph 1012mB
12:00 2911m 18°C 18_20 0cm 62% 20mph 28mph 1010mB
15:00 2834m 18°C 18_19 0cm 68% 19mph 27mph 1008mB
18:00 2561m 18°C 18_13 0cm 84% 13mph 29mph 1008mB
21:00 2421m 12°C 12_14 0cm 100% 14mph 30mph 1008mB
0:00 2399m 12°C 12_13 0cm 100% 13mph 28mph 1007mB
3:00 2363m 11°C 11_11 0cm 100% 11mph 24mph 1005mB
6:00 2312m 11°C 11_8 0cm 100% 8mph 21mph 1004mB
9:00 2397m 11°C 11_9 0cm 100% 9mph 18mph 1004mB
12:00 2475m 13°C 13_12 0cm 100% 12mph 18mph 1004mB
15:00 2572m 15°C 15_11 0cm 100% 11mph 15mph 1004mB
18:00 2541m 15°C 15_5 0cm 100% 5mph 9mph 1005mB
21:00 2483m 11°C 11_1 0cm 98% 1mph 2mph 1008mB
0:00 2496m 11°C 11_1 0cm 95% 1mph 2mph 1010mB
3:00 2608m 10°C 10_1 0cm 64% 1mph 2mph 1011mB
6:00 2518m 10°C 10_4 0cm 82% 4mph 6mph 1012mB
9:00 2546m 13°C 13_9 0cm 92% 9mph 17mph 1013mB
12:00 2709m 19°C 19_9 0cm 90% 9mph 17mph 1014mB
15:00 2516m 18°C 18_5 0cm 100% 5mph 10mph 1014mB
18:00 2578m 18°C 18_8 0cm 100% 8mph 26mph 1015mB
21:00 2694m 11°C 11_0 0cm 98% 0mph 1mph 1017mB
0:00 2850m 10°C 10_1 0cm 59% 1mph 1mph 1019mB
3:00 2441m 10°C 10_3 0cm 11% 3mph 4mph 1020mB
6:00 2503m 10°C 10_3 0cm 23% 3mph 3mph 1020mB
9:00 2603m 12°C 12_6 0cm 59% 6mph 4mph 1020mB
12:00 2706m 18°C 18_3 0cm 74% 3mph 3mph 1019mB
15:00 2757m 19°C 19_2 0cm 100% 2mph 3mph 1017mB
18:00 2746m 19°C 19_3 0cm 100% 3mph 4mph 1017mB
21:00 2678m 13°C 13_5 0cm 100% 5mph 6mph 1018mB
0:00 2690m 11°C 11_5 0cm 63% 5mph 6mph 1018mB
3:00 2580m 10°C 10_4 0cm 0% 4mph 5mph 1016mB
6:00 2503m 10°C 10_4 0cm 0% 4mph 13mph 1016mB
9:00 2347m 13°C 13_15 0cm 3% 15mph 24mph 1015mB
12:00 2304m 19°C 19_18 0cm 3% 18mph 23mph 1015mB
15:00 2209m 19°C 19_11 0cm 3% 11mph 13mph 1014mB
18:00 2255m 19°C 19_1 0cm 6% 1mph 2mph 1015mB
21:00 2263m 10°C 10_5 0cm 0% 5mph 6mph 1018mB
0:00 2295m 9°C 9_6 0cm 0% 6mph 7mph 1020mB
3:00 2252m 8°C 8_6 0cm 0% 6mph 8mph 1022mB
6:00 2244m 7°C 7_5 0cm 0% 5mph 7mph 1023mB
9:00 2409m 10°C 10_5 0cm 1% 5mph 5mph 1023mB
12:00 2621m 19°C 19_4 0cm 1% 4mph 4mph 1022mB
15:00 2758m 20°C 20_4 0cm 0% 4mph 5mph 1021mB
18:00 2783m 20°C 20_6 0cm 0% 6mph 8mph 1022mB
21:00 2893m 12°C 12_7 0cm 29% 7mph 9mph 1025mB
0:00 2949m 12°C 12_5 0cm 52% 5mph 6mph 1025mB
3:00 2891m 11°C 11_4 0cm 56% 4mph 5mph 1024mB
6:00 2858m 10°C 10_3 0cm 50% 3mph 4mph 1024mB
9:00 2924m 13°C 13_2 0cm 47% 2mph 3mph 1023mB
12:00 2982m 23°C 23_2 0cm 42% 2mph 4mph 1022mB
15:00 3047m 23°C 23_6 0cm 5% 6mph 7mph 1021mB
18:00 3072m 23°C 23_7 0cm 3% 7mph 9mph 1020mB
21:00 3063m 13°C 13_6 0cm 0% 6mph 8mph 1021mB
0:00 3018m 12°C 12_5 0cm 0% 5mph 6mph 1021mB
3:00 2992m 11°C 11_4 0cm 2% 4mph 5mph 1020mB
6:00 3019m 10°C 10_3 0cm 13% 3mph 5mph 1018mB
9:00 3156m 13°C 13_4 0cm 26% 4mph 8mph 1017mB
12:00 3269m 22°C 22_9 0cm 30% 9mph 11mph 1014mB
15:00 3227m 22°C 22_12 0cm 37% 12mph 17mph 1011mB
18:00 3017m 22°C 22_9 0cm 61% 9mph 21mph 1010mB
21:00 2979m 13°C 13_4 0cm 100% 4mph 10mph 1009mB
0:00 3083m 12°C 12_1 0cm 96% 1mph 3mph 1007mB
3:00 2965m 11°C 11_2 0cm 70% 2mph 4mph 1005mB
6:00 2839m 10°C 10_2 0cm 55% 2mph 6mph 1004mB
9:00 2703m 14°C 14_6 0cm 6% 6mph 10mph 1003mB
12:00 2575m 22°C 22_8 0cm 4% 8mph 12mph 1002mB
15:00 2423m 23°C 23_5 0cm 3% 5mph 8mph 1002mB
18:00 2423m 23°C 23_6 0cm 8% 6mph 9mph 1003mB
21:00 2348m 12°C 12_4 0cm 0% 4mph 5mph 1007mB
0:00 2346m 9°C 9_9 0cm 0% 9mph 16mph 1009mB
3:00 2140m 8°C 8_9 0cm 1% 9mph 18mph 1010mB
6:00 1902m 7°C 7_9 0cm 4% 9mph 17mph 1011mB
9:00 1838m 10°C 10_11 0cm 14% 11mph 14mph 1011mB
12:00 2052m 17°C 17_9 0cm 7% 9mph 9mph 1009mB
15:00 2228m 18°C 18_7 0cm 0% 7mph 7mph 1008mB
18:00 2291m 18°C 18_4 0cm 0% 4mph 5mph 1009mB
21:00 2219m 10°C 10_6 0cm 0% 6mph 7mph 1011mB
0:00 2140m 9°C 9_4 0cm 1% 4mph 5mph 1011mB
Afternoon 0.114583mm 1.3125 2129m 17°C 17_2 0cm 59% 2mph 4mph 1008mB
Morning 0.151042mm 1.8125 2291m 9°C 9_5 0cm 3% 5mph 6mph 1011mB
Afternoon 0.0208333mm 0.25 2272m 17°C 17_4 0cm 30% 4mph 6mph 1010mB
Morning 0.114583mm 1.375 2397m 11°C 11_3 0cm 62% 3mph 5mph 1009mB
Afternoon 0.151042mm 0.0625 2582m 15°C 15_7 0cm 83% 7mph 11mph 1006mB
Morning 0.755208mm 0.125 2933m 12°C 12_2 0cm 96% 2mph 3mph 1005mB
Afternoon 1.38542mm 3.1875 2796m 15°C 15_4 0cm 98% 4mph 9mph 1001mB
Morning 0.96875mm 3.5 2209m 11°C 11_8 0cm 69% 8mph 20mph 1001mB
Afternoon 0.0416667mm 0.4375 2437m 19°C 19_10 0cm 83% 10mph 11mph 1002mB
Morning 0.640625mm 6.1875 2167m 12°C 12_6 0cm 61% 6mph 10mph 1006mB
Afternoon 0.0989583mm 0.0625 1887m 15°C 15_3 0cm 92% 3mph 4mph 1010mB
Morning 0.114583mm 1.125 1789m 8°C 8_3 0cm 44% 3mph 4mph 1018mB

16 day outlook at a glance

Forecast issued: 22/04/2019 08:04:27

Chat

Your comments and questions. In a resort? Let us know what it's like!


Characters left 250

For terms and conditions see Readers Comments on the Cookie and privacy policy page.